Location: Unspecified
(56.5167°N, 0.0000°E)
Time: 09:28:20
(UTC+02:00)

Resurs 1-4 Rocket - Pass Details

Date: 12 August 2020
Orbit: 799 x 815 km, 98.6° (Epoch: 23 September)

Event Time Altitude Azimuth Distance (km) Brightness Sun altitude
Rises 04:44:40 0° 14° (NNE) 3,337 6.6 -11.3°
Reaches altitude 10° 04:47:05 10° 9° (N) 2,400 5.6 -11.0°
Maximum altitude 04:52:09 48° 297° (WNW) 1,050 2.6 -10.6°
Enters shadow 04:56:35 13° 227° (SW) 2,157 3.7 -10.2°
